Del Rio, TX

10:50 PM CDT on October 19, 2017 (GMT -0500)
Del Rio International

Weather History for KDRT - May, 2013

Change the Weather History Date:

Sunday, May 19, 2013

  Actual Average Record
Temperature  
Mean Temperature 88 °F 80 °F  
Max Temperature 100 °F 90 °F 104 °F (1973)
Min Temperature 76 °F 69 °F 54 °F (1986)
Degree Days  
Heating Degree Days 0 0  
Month to date heating degree days 4 0  
Since 1 July heating degree days 1013 1375  
Cooling Degree Days 23 15  
Month to date cooling degree days 248 239  
Year to date cooling degree days 674 568  
Growing Degree Days 38 (Base 50)    
Moisture  
Dew Point 63 °F    
Average Humidity 49    
Maximum Humidity 74    
Minimum Humidity 24    
Precipitation  
Precipitation 0.00 in 0.10 in 2.01 in (1997)
Month to date precipitation 0.59 1.60  
Year to date precipitation 2.34 5.99  
Sea Level Pressure  
Sea Level Pressure 29.69 in    
Wind  
Wind Speed 8 mph (ESE)    
Max Wind Speed 17 mph    
Max Gust Speed 24 mph    
Visibility 10 miles    
Events      
T = Trace of Precipitation, MM = Missing Value Source: NWS Daily Summary

Daily Weather History Graph

Daily Weather History Graph

Search for Another Location

Airport or City:

Trip Planner

Search our weather history database for the weather conditions in past years. The results will help you decide how hot, cold, wet, or windy it might be!

Date:

Astronomy

May. 19, 2013 Rise Set
Actual Time 6:49 AM CDT 8:31 PM CDT
Civil Twilight 6:22 AM CDT 8:57 PM CDT
Nautical Twilight 5:51 AM CDT 9:29 PM CDT
Astronomical Twilight 5:18 AM CDT 10:02 PM CDT
Moon 3:02 PM CDT (5/19) 2:46 AM CDT (5/19)
Length of Visible Light 14h 34m
Length of Day
13h 42m
Waxing Gibbous, 65% of the Moon is Illuminated
May 19
Waxing Gibbous
May 24
Full
May 31
Last Quarter
Jun 8
New
Jun 16
First Quarter

Hourly Weather History & Observations

Time (CDT) Temp. Heat Index Dew Point Humidity Pressure Visibility Wind Dir Wind Speed Gust Speed Precip Events Conditions
12:53 AM 84.0 °F 87.0 °F 68.0 °F 58% 29.71 in 9.0 mi ESE 11.5 mph - N/A   Clear
1:53 AM 82.0 °F 84.1 °F 66.0 °F 58% 29.71 in 10.0 mi ESE 11.5 mph 20.7 mph N/A   Clear
2:53 AM 81.0 °F 82.2 °F 63.0 °F 54% 29.70 in 10.0 mi ESE 12.7 mph - N/A   Clear
3:53 AM 79.0 °F - 63.0 °F 58% 29.70 in 10.0 mi ESE 5.8 mph - N/A   Clear
4:53 AM 78.1 °F - 63.0 °F 60% 29.72 in 10.0 mi SE 9.2 mph - N/A   Clear
5:53 AM 77.0 °F - 63.0 °F 62% 29.68 in 10.0 mi East 12.7 mph 23.0 mph N/A   Clear
6:53 AM 77.0 °F - 64.4 °F 65% 29.74 in 10.0 mi East 11.5 mph 20.7 mph N/A   Clear
7:53 AM 75.9 °F - 66.0 °F 71% 29.75 in 9.0 mi ESE 9.2 mph - N/A   Clear
8:53 AM 78.1 °F - 66.9 °F 68% 29.75 in 9.0 mi ESE 13.8 mph - N/A   Clear
9:53 AM 80.1 °F 82.7 °F 68.0 °F 67% 29.76 in 8.0 mi SE 12.7 mph - N/A   Clear
10:53 AM 82.9 °F 85.8 °F 68.0 °F 60% 29.76 in 8.0 mi SE 8.1 mph - N/A   Clear
11:53 AM 84.9 °F 88.2 °F 68.0 °F 57% 29.75 in 8.0 mi South 5.8 mph - N/A   Clear
12:53 PM 88.0 °F 90.7 °F 66.9 °F 49% 29.73 in 9.0 mi Calm Calm - N/A   Clear
1:53 PM 91.4 °F 93.2 °F 64.4 °F 41% 29.76 in 10.0 mi Variable 3.5 mph - N/A   Clear
2:53 PM 93.2 °F 94.1 °F 62.6 °F 36% 29.72 in 10.0 mi SW 3.5 mph - N/A   Clear
3:53 PM 98.1 °F 97.7 °F 59.0 °F 27% 29.64 in 10.0 mi East 8.1 mph - N/A   Clear
4:53 PM 99.0 °F 97.3 °F 55.0 °F 23% 29.62 in 10.0 mi ESE 8.1 mph - N/A   Clear
5:53 PM 99.0 °F 97.7 °F 55.9 °F 24% 29.60 in 10.0 mi Variable 3.5 mph - N/A   Clear
6:53 PM 98.1 °F 96.4 °F 55.9 °F 24% 29.60 in 10.0 mi East 9.2 mph - N/A   Clear
7:53 PM 97.0 °F 95.3 °F 55.9 °F 25% 29.60 in 10.0 mi ESE 6.9 mph - N/A   Clear
8:53 PM 93.0 °F 92.0 °F 57.9 °F 31% 29.62 in 10.0 mi East 4.6 mph - N/A   Clear
9:53 PM 90.0 °F 88.8 °F 57.9 °F 34% 29.63 in 10.0 mi ENE 4.6 mph - N/A   Clear
10:53 PM 89.6 °F 89.5 °F 60.8 °F 38% 29.70 in 10.0 mi ENE 8.1 mph - N/A   Clear
11:53 PM 89.1 °F 91.3 °F 66.0 °F 46% 29.67 in 8.0 mi ESE 13.8 mph - N/A   Clear